Карточка аэропорта UIUU

Внимание!
Информация на этой странице в стадии наполнения.
Если вы не увидели какой-то информации, или заметили неточность - пожалуйста сообщите нам!
Спасибо!
Команда RU-STAFF
Название аэропортаМухино
Название аэропорта (англ.)Mukhino
Превышение1699 ft. (517.9 m.)
Координаты51°48.45', 107°26.4'
Высота перехода1800m
Эшелон переходаFL090
Коды ответчика2701-2717
Зона ОрВДИркутск РПИ (UIII)
Данные METARUIUU 252100Z 33004MPS 300V360 6000 -TSRA BKN033CB 16/15 Q1008 R26/290253 NOSIG RMK MT OBSC QFE712/0950
Проноз погоды (TAF)UIUU 252003Z 2520/2621 36003G08MPS 9999 -TSRA SCT040CB TEMPO 2520/2523 VRB08MPS BECMG 2523/2524 NSW TEMPO 2600/2615 VRB08MPS -TSRA
NOTAMshow/hide NOTAM
AWOS   TABLE

Информация о ВПП

ВПП Длина ВПП (м.) Покрытие Курс ВПП Частота ILS
083400Цементобетон83111.3
263400Цементобетон263110.3

Диспетчерские позиции

Позывной Наименование органа УВД Частота
UIUU_APPУлан-Удэ-Подход129.300
UIUU_TWRУлан-Удэ-Вышка118.200



Спутниковое изображение